Fairfield, NJ

2:26 AM EST on January 19, 2017 (GMT -0500)
Essex County

Weather History for KCDW - January, 2013

Change the Weather History Date:

Tuesday, January 8, 2013

  Actual Average Record
Temperature  
Mean Temperature 34 °F -  
Max Temperature 48 °F 36 °F 68 °F (1998)
Min Temperature 21 °F 20 °F 1 °F (1968)
Degree Days  
Heating Degree Days 30    
Moisture  
Dew Point 25 °F    
Average Humidity 70    
Maximum Humidity 92    
Minimum Humidity 44    
Precipitation  
Precipitation 0.00 in - - ()
Sea Level Pressure  
Sea Level Pressure 30.40 in    
Wind  
Wind Speed 1 mph (WSW)    
Max Wind Speed 9 mph    
Max Gust Speed -    
Visibility 9 miles    
Events      
Averages and records for this station are not official NWS values.
T = Trace of Precipitation, MM = Missing Value Source: NWS Daily Summary

Daily Weather History Graph

Daily Weather History Graph

Search for Another Location

Airport or City:

Trip Planner

Search our weather history database for the weather conditions in past years. The results will help you decide how hot, cold, wet, or windy it might be!

Date:

Astronomy

Jan. 08, 2013 Rise Set
Actual Time 7:21 AM EST 4:46 PM EST
Civil Twilight 6:50 AM EST 5:17 PM EST
Nautical Twilight 6:16 AM EST 5:51 PM EST
Astronomical Twilight 5:43 AM EST 6:24 PM EST
Moon 3:51 AM EST (1/8) 1:46 PM EST (1/8)
Length of Visible Light 10h 26m
Length of Day
9h 25m
Waning Crescent, 14% of the Moon is Illuminated
Jan 8
Waning Crescent
Jan 11
New
Jan 18
First Quarter
Jan 26
Full
Feb 3
Last Quarter

Hourly Weather History & Observations

Time (EST) Temp. Windchill Dew Point Humidity Pressure Visibility Wind Dir Wind Speed Gust Speed Precip Events Conditions
12:53 AM 25.0 °F - 21.0 °F 85% 30.41 in 10.0 mi Calm Calm - N/A   Clear
1:53 AM 24.1 °F - 21.0 °F 88% 30.40 in 10.0 mi Calm Calm - N/A   Clear
2:53 AM 23.0 °F - 19.9 °F 88% 30.40 in 10.0 mi Calm Calm - N/A   Clear
3:53 AM 21.9 °F - 19.9 °F 92% 30.39 in 9.0 mi Calm Calm - N/A   Clear
4:53 AM 21.9 °F - 19.9 °F 92% 30.39 in 10.0 mi Calm Calm - N/A   Clear
5:53 AM 23.0 °F - 21.0 °F 92% 30.40 in 8.0 mi Calm Calm - N/A   Clear
6:53 AM 30.0 °F 25.2 °F 24.1 °F 79% 30.41 in 7.0 mi SSW 4.6 mph - N/A   Clear
7:53 AM 30.0 °F - 24.1 °F 79% 30.43 in 6.0 mi Calm Calm - N/A   Haze
8:53 AM 33.1 °F - 25.0 °F 72% 30.45 in 6.0 mi Calm Calm - N/A   Haze
9:53 AM 37.0 °F 33.3 °F 25.0 °F 62% 30.44 in 8.0 mi Variable 4.6 mph - N/A   Clear
10:53 AM 39.9 °F 35.8 °F 26.1 °F 58% 30.42 in 10.0 mi WSW 5.8 mph - N/A   Clear
11:53 AM 43.0 °F 39.5 °F 28.0 °F 56% 30.38 in 10.0 mi West 5.8 mph - N/A   Clear
12:53 PM 45.0 °F 40.1 °F 28.0 °F 52% 30.38 in 10.0 mi West 9.2 mph - N/A   Clear
2:53 PM 48.0 °F - 27.0 °F 44% 30.37 in 10.0 mi SW 4.6 mph - N/A   Clear
3:53 PM 46.9 °F - 27.0 °F 46% 30.36 in 10.0 mi SW 4.6 mph - N/A   Clear
4:53 PM 45.0 °F 42.6 °F 27.0 °F 49% 30.37 in 10.0 mi WSW 4.6 mph - N/A   Clear
5:53 PM 42.1 °F - 27.0 °F 55% 30.38 in 10.0 mi Calm Calm - N/A   Clear
6:53 PM 39.9 °F - 27.0 °F 60% 30.40 in 10.0 mi Calm Calm - N/A   Clear
7:53 PM 35.1 °F - 27.0 °F 72% 30.40 in 10.0 mi Calm Calm - N/A   Clear
8:53 PM 36.0 °F - 27.0 °F 70% 30.40 in 10.0 mi Calm Calm - N/A   Clear
9:53 PM 34.0 °F - 27.0 °F 75% 30.40 in 9.0 mi Calm Calm - N/A   Clear
10:53 PM 30.9 °F - 26.1 °F 82% 30.42 in 8.0 mi Calm Calm - N/A   Clear